Simultaneous Nadir Overpasses (SNOs) Predictions

Prediction of SNOs between METOP-C and LANDSAT-8 Satellite Orbit:

Table of predicted SNOs for the next 14.0 days since TLE Epoch: 2/4/2023
Index Date (METOP-C) Time (METOP-C) Lat,Lon (METOP-C) SZA (METOP-C ) Date (LANDSAT-8) Time (LANDSAT-8) Lat,Lon (LANDSAT-8) SZA (LANDSAT-8 ) Distance(km) Time Diff (sec)
1 02/05/2023 04:44:07 -81.10, -31.77 81.31 02/05/2023 04:44:57 -81.10, -31.89 81.31 1.99 50
2 02/05/2023 05:34:46 81.12, 136.15 98.75 02/05/2023 05:34:22 81.13, 136.19 98.75 0.89 24
3 02/08/2023 00:18:31 -81.11, 34.67 82.18 02/08/2023 00:19:11 -81.11, 34.65 82.16 0.46 40
4 02/08/2023 01:09:09 81.14,-157.11 97.92 02/08/2023 01:08:36 81.13,-157.30 97.89 3.15 33
5 02/10/2023 19:52:54 -81.10, 101.05 83.08 02/10/2023 19:53:24 -81.10, 101.02 83.08 0.66 30
6 02/10/2023 20:43:32 81.13, -90.81 97.01 02/10/2023 20:42:49 81.13, -90.95 96.97 2.43 43
7 02/13/2023 15:27:17 -81.11, 167.74 83.98 02/13/2023 15:27:37 -81.11, 167.57 83.99 2.98 20
8 02/13/2023 16:17:56 81.13, -24.58 96.06 02/13/2023 16:17:02 81.13, -24.42 96.06 2.87 54
9 02/16/2023 11:01:41 -81.11,-126.01 84.95 02/16/2023 11:01:50 -81.11,-126.05 84.95 0.73 9



Historial Predications of SNOs between METOP-C and LANDSAT-8
